OPS 4682 DEB, 38394

Orbit data source: Space-Track

OPS 4682 DEB, 38394 is space debris in LEO originally from a launch on Sat, 03 Apr 1965 UTC launched from the Air Force Western Test Range (AFWTR). Debris objects in space refer to the collection of defunct objects orbiting the Earth. Examples of debris include non-operational satellites, rocket bodies, and fragments generated from explosions, collisions, or faulty payload assembly.

Loading next visibility...
Identifier
38394, 1965-027CX
Orbit
LEO
Country
Flag of USUS
Related business
Manufacturer
Unknown
Mission
Spacecraft
Bus & Motor
Unknown
Mass
Unknown
Launch date (UTC)
1965-04-03 (61 years ago)
Launch vehicle
Unknown
Launch site
Air Force Western Test Range (AFWTR)
Object type
Payload
Rocket body
Debris
Shape & HBR
Unknown shape, 0.1 m
Radar Cross Section
Small (<0.1 m²)

Expand to show TLE details & history
Last TLE update: 1 day ago

TLE from 1 day ago
0 OPS 4682 DEB
1 38394U 65027CX  26104.52865195  .00000998  00000-0  32803-2 0  9995
2 38394  90.2719  22.7165 0035248 152.7153 207.5830 13.00046888 56448
Epoch: 2026-04-14T12:41Z
TLE epoch observation values (Epoch: 2026-04-14T12:41:15.528Z)
Latitude
-0.00006°
Longitude
-10.3018°
Altitude
1,288.68 km
Speed
7.201 km/s
True Right ascension
01h 30m 51s
True Declination
0° 00' 00"
Sunlit
Object was in daylight at epoch
Visualization orbit readout
Latitude
Unknown
Longitude
Unknown
Altitude
Unknown
Speed
Unknown
Apparent Right ascension
Unknown
Apparent Declination
Unknown
Sunlit
N/A
Visualization observer readout
Local Sidereal Time
20:27:42
Azimuth
Unknown
Elevation
Unknown
Doppler factor
Unknown
Orbital elements
Apogee altitude
1,285.949 km
Perigee altitude
1,232.11 km
Semi-major axis
7,637.167 km
Eccentricity
0.00352
Inclination
90.2719°
RAAN
22.7165°
Arg. of periapsis
152.7153°
True anomaly
207.3967°
Mean anomaly
207.583°
Eccentric anomaly
207.48978°
Mean motion
3.25196 °/min
Orbital period
110.7 mins
BSTAR
0.0032803
Loading maneuver chart data...
Computing Atmospheric mass density...
Loading historical data...
Loading historical data...
Loading historical data...
Loading historical data...
Loading historical data...
Loading historical data...
Loading historical data...

Documentation

Showing up to 5 results
|